Time,TemperatureF,DewpointF,PressureIn,WindDirection,WindDirectionDegrees,WindSpeedMPH,WindSpeedGustMPH,Humidity,HourlyPrecipIn,Conditions,Clouds,dailyrainin,SolarRadiationWatts/m^2,SoftwareType,DateUTC
2013-02-01 00:00:00,43.8,39.3,30.21,NW,322,0.0,0.0,84,0.00,,,0.00,0,WeatherTracker,2013-02-01 08:00:00,
2013-02-01 00:05:00,43.7,39.2,30.21,NW,322,0.0,0.0,84,0.00,,,0.00,0,WeatherTracker,2013-02-01 08:05:00,
2013-02-01 00:10:00,43.7,39.2,30.21,NW,322,0.0,0.0,84,0.00,,,0.00,0,WeatherTracker,2013-02-01 08:10:00,
2013-02-01 00:15:00,43.6,39.1,30.21,NW,322,0.0,0.0,84,0.00,,,0.00,0,WeatherTracker,2013-02-01 08:15:00,
2013-02-01 00:20:00,43.5,39.0,30.21,NW,322,0.0,0.0,84,0.00,,,0.00,0,WeatherTracker,2013-02-01 08:20:00,
2013-02-01 00:25:00,43.4,38.9,30.21,NW,322,0.0,0.0,84,0.00,,,0.00,0,WeatherTracker,2013-02-01 08:25:00,
2013-02-01 00:30:00,43.4,38.9,30.21,NW,322,0.0,0.0,84,0.00,,,0.00,0,WeatherTracker,2013-02-01 08:30:00,
2013-02-01 00:35:00,43.3,38.8,30.21,NW,322,0.0,0.0,84,0.00,,,0.00,0,WeatherTracker,2013-02-01 08:35:00,
2013-02-01 00:40:00,43.2,38.7,30.21,NW,322,0.0,0.0,84,0.00,,,0.00,0,WeatherTracker,2013-02-01 08:40:00,
2013-02-01 00:45:00,43.0,38.5,30.21,NW,322,0.0,0.0,84,0.00,,,0.00,0,WeatherTracker,2013-02-01 08:45:00,
2013-02-01 00:50:00,42.9,38.7,30.21,NW,322,0.0,0.0,85,0.00,,,0.00,0,WeatherTracker,2013-02-01 08:50:00,
2013-02-01 00:55:00,42.7,38.5,30.21,NW,322,0.0,0.0,85,0.00,,,0.00,0,WeatherTracker,2013-02-01 08:55:00,
2013-02-01 01:00:00,42.6,38.4,30.21,NW,322,0.0,0.0,85,0.00,,,0.00,0,WeatherTracker,2013-02-01 09:00:00,
2013-02-01 01:05:00,42.6,38.4,30.21,NW,322,0.0,0.0,85,0.00,,,0.00,0,WeatherTracker,2013-02-01 09:05:00,
2013-02-01 01:11:00,42.7,38.8,30.21,NW,322,0.0,0.0,86,0.00,,,0.00,0,WeatherTracker,2013-02-01 09:11:00,
2013-02-01 01:16:00,42.7,38.8,30.21,NW,322,0.0,0.0,86,0.00,,,0.00,0,WeatherTracker,2013-02-01 09:16:00,
2013-02-01 01:21:00,42.7,38.8,30.21,NW,322,0.0,0.0,86,0.00,,,0.00,0,WeatherTracker,2013-02-01 09:21:00,
2013-02-01 01:26:00,42.8,38.6,30.21,NW,322,0.0,0.0,85,0.00,,,0.00,0,WeatherTracker,2013-02-01 09:26:00,
2013-02-01 01:31:00,42.8,38.6,30.21,NW,322,0.0,0.0,85,0.00,,,0.00,0,WeatherTracker,2013-02-01 09:31:00,
2013-02-01 01:36:00,42.9,39.0,30.20,NW,322,0.0,0.0,86,0.00,,,0.00,0,WeatherTracker,2013-02-01 09:36:00,
2013-02-01 01:41:00,43.2,39.3,30.20,NW,321,0.0,0.0,86,0.00,,,0.00,0,WeatherTracker,2013-02-01 09:41:00,
2013-02-01 01:46:00,43.5,39.6,30.20,NW,321,1.0,0.0,86,0.00,,,0.00,0,WeatherTracker,2013-02-01 09:46:00,
2013-02-01 01:51:00,43.9,40.0,30.20,NW,320,0.0,1.0,86,0.00,,,0.00,0,WeatherTracker,2013-02-01 09:51:00,
2013-02-01 01:56:00,44.3,40.1,30.20,NW,321,0.0,1.0,85,0.00,,,0.00,0,WeatherTracker,2013-02-01 09:56:00,
2013-02-01 02:01:00,44.6,40.4,30.21,NW,320,0.0,1.0,85,0.00,,,0.00,0,WeatherTracker,2013-02-01 10:01:00,
2013-02-01 02:06:00,44.8,40.3,30.21,NW,319,0.0,2.0,84,0.00,,,0.00,0,WeatherTracker,2013-02-01 10:06:00,
2013-02-01 02:11:00,45.0,40.5,30.21,NW,319,0.0,2.0,84,0.00,,,0.00,0,WeatherTracker,2013-02-01 10:11:00,
2013-02-01 02:16:00,45.1,40.3,30.21,NW,318,0.0,2.0,83,0.00,,,0.00,0,WeatherTracker,2013-02-01 10:16:00,
2013-02-01 02:21:00,45.1,40.3,30.21,NW,325,0.0,1.0,83,0.00,,,0.00,0,WeatherTracker,2013-02-01 10:21:00,
2013-02-01 02:26:00,45.1,40.3,30.21,NW,319,1.0,1.0,83,0.00,,,0.00,0,WeatherTracker,2013-02-01 10:26:00,
2013-02-01 02:31:00,45.1,40.3,30.21,NW,316,0.0,2.0,83,0.00,,,0.00,0,WeatherTracker,2013-02-01 10:31:00,
2013-02-01 02:36:00,45.3,40.8,30.21,NW,315,0.0,2.0,84,0.00,,,0.00,0,WeatherTracker,2013-02-01 10:36:00,
2013-02-01 02:41:00,45.5,40.6,30.21,NW,321,0.0,2.0,83,0.00,,,0.00,0,WeatherTracker,2013-02-01 10:41:00,
2013-02-01 02:46:00,45.5,40.6,30.21,NW,319,1.0,2.0,83,0.00,,,0.00,0,WeatherTracker,2013-02-01 10:46:00,
2013-02-01 02:52:00,45.4,40.5,30.21,NW,321,0.0,1.0,83,0.00,,,0.00,0,WeatherTracker,2013-02-01 10:52:00,
2013-02-01 02:56:00,45.2,40.3,30.21,NW,320,0.0,1.0,83,0.00,,,0.00,0,WeatherTracker,2013-02-01 10:56:00,
2013-02-01 03:02:00,45.1,40.3,30.21,NW,320,0.0,1.0,83,0.00,,,0.00,0,WeatherTracker,2013-02-01 11:02:00,
2013-02-01 03:07:00,45.0,40.2,30.21,NW,320,1.0,1.0,83,0.00,,,0.00,0,WeatherTracker,2013-02-01 11:07:00,
2013-02-01 03:12:00,44.8,40.0,30.21,NW,320,0.0,1.0,83,0.00,,,0.00,0,WeatherTracker,2013-02-01 11:12:00,
2013-02-01 03:17:00,44.6,39.8,30.21,NW,319,0.0,1.0,83,0.00,,,0.00,0,WeatherTracker,2013-02-01 11:17:00,
2013-02-01 03:22:00,44.5,40.0,30.21,NW,315,0.0,1.0,84,0.00,,,0.00,0,WeatherTracker,2013-02-01 11:22:00,
2013-02-01 03:27:00,44.5,40.0,30.21,NW,313,0.0,1.0,84,0.00,,,0.00,0,WeatherTracker,2013-02-01 11:27:00,
2013-02-01 03:32:00,44.5,40.0,30.20,NW,313,0.0,1.0,84,0.00,,,0.00,0,WeatherTracker,2013-02-01 11:32:00,
2013-02-01 03:37:00,44.5,40.0,30.21,NW,307,0.0,1.0,84,0.00,,,0.00,0,WeatherTracker,2013-02-01 11:37:00,
2013-02-01 03:42:00,44.5,39.7,30.21,NW,306,0.0,1.0,83,0.00,,,0.00,0,WeatherTracker,2013-02-01 11:42:00,
2013-02-01 03:47:00,44.4,39.6,30.21,NW,306,0.0,1.0,83,0.00,,,0.00,0,WeatherTracker,2013-02-01 11:47:00,
2013-02-01 03:52:00,44.3,39.5,30.21,NW,306,0.0,1.0,83,0.00,,,0.00,0,WeatherTracker,2013-02-01 11:52:00,
2013-02-01 03:57:00,44.2,39.4,30.20,NW,306,0.0,1.0,83,0.00,,,0.00,0,WeatherTracker,2013-02-01 11:57:00,
2013-02-01 04:02:00,44.1,39.3,30.20,NW,305,0.0,1.0,83,0.00,,,0.00,0,WeatherTracker,2013-02-01 12:02:00,
2013-02-01 04:07:00,43.9,39.1,30.21,NW,306,1.0,1.0,83,0.00,,,0.00,0,WeatherTracker,2013-02-01 12:07:00,
2013-02-01 04:12:00,43.8,39.0,30.21,WNW,302,0.0,1.0,83,0.00,,,0.00,0,WeatherTracker,2013-02-01 12:12:00,
2013-02-01 04:17:00,43.7,39.2,30.20,WNW,302,0.0,1.0,84,0.00,,,0.00,0,WeatherTracker,2013-02-01 12:17:00,
2013-02-01 04:22:00,43.6,39.1,30.20,WNW,302,0.0,1.0,84,0.00,,,0.00,0,WeatherTracker,2013-02-01 12:22:00,
2013-02-01 04:27:00,43.6,39.1,30.20,WNW,296,0.0,2.0,84,0.00,,,0.00,0,WeatherTracker,2013-02-01 12:27:00,
2013-02-01 04:32:00,43.7,39.2,30.20,WNW,297,0.0,2.0,84,0.00,,,0.00,0,WeatherTracker,2013-02-01 12:32:00,
2013-02-01 04:37:00,43.8,39.3,30.20,WNW,298,0.0,2.0,84,0.00,,,0.00,0,WeatherTracker,2013-02-01 12:37:00,
2013-02-01 04:42:00,43.8,39.3,30.21,NW,304,0.0,2.0,84,0.00,,,0.00,0,WeatherTracker,2013-02-01 12:42:00,
2013-02-01 04:47:00,43.8,39.3,30.21,NW,305,1.0,2.0,84,0.00,,,0.00,0,WeatherTracker,2013-02-01 12:47:00,
2013-02-01 04:52:00,43.8,39.3,30.21,WNW,294,1.0,3.0,84,0.00,,,0.00,0,WeatherTracker,2013-02-01 12:52:00,
2013-02-01 04:57:00,43.9,39.4,30.21,WNW,294,0.0,3.0,84,0.00,,,0.00,0,WeatherTracker,2013-02-01 12:57:00,
2013-02-01 05:02:00,43.9,39.4,30.21,WNW,294,0.0,2.0,84,0.00,,,0.00,0,WeatherTracker,2013-02-01 13:02:00,
2013-02-01 05:07:00,43.9,39.4,30.21,WNW,292,0.0,2.0,84,0.00,,,0.00,0,WeatherTracker,2013-02-01 13:07:00,
2013-02-01 05:13:00,43.9,39.4,30.21,WNW,298,0.0,1.0,84,0.00,,,0.00,0,WeatherTracker,2013-02-01 13:13:00,
2013-02-01 05:18:00,43.9,39.1,30.21,WNW,297,0.0,1.0,83,0.00,,,0.00,0,WeatherTracker,2013-02-01 13:18:00,
2013-02-01 05:23:00,43.7,38.9,30.21,WNW,296,0.0,1.0,83,0.00,,,0.00,0,WeatherTracker,2013-02-01 13:23:00,
2013-02-01 05:28:00,43.7,39.2,30.21,WNW,298,0.0,1.0,84,0.00,,,0.00,0,WeatherTracker,2013-02-01 13:28:00,
2013-02-01 05:33:00,43.6,39.1,30.21,WNW,298,0.0,1.0,84,0.00,,,0.00,0,WeatherTracker,2013-02-01 13:33:00,
2013-02-01 05:38:00,43.5,38.7,30.21,WNW,298,0.0,1.0,83,0.00,,,0.00,0,WeatherTracker,2013-02-01 13:38:00,
2013-02-01 05:43:00,43.4,38.6,30.21,WNW,298,0.0,1.0,83,0.00,,,0.00,0,WeatherTracker,2013-02-01 13:43:00,
2013-02-01 05:48:00,43.2,38.4,30.21,WNW,298,0.0,1.0,83,0.00,,,0.00,0,WeatherTracker,2013-02-01 13:48:00,
2013-02-01 05:53:00,43.0,38.2,30.22,WNW,298,0.0,1.0,83,0.00,,,0.00,0,WeatherTracker,2013-02-01 13:53:00,
2013-02-01 05:58:00,42.8,38.0,30.22,WNW,298,0.0,1.0,83,0.00,,,0.00,0,WeatherTracker,2013-02-01 13:58:00,
2013-02-01 06:03:00,42.4,37.9,30.22,WNW,298,0.0,1.0,84,0.00,,,0.00,0,WeatherTracker,2013-02-01 14:03:00,
2013-02-01 06:08:00,42.1,37.6,30.22,WNW,298,0.0,0.0,84,0.00,,,0.00,0,WeatherTracker,2013-02-01 14:08:00,
2013-02-01 06:13:00,41.7,37.2,30.21,WNW,298,0.0,0.0,84,0.00,,,0.00,0,WeatherTracker,2013-02-01 14:13:00,
2013-02-01 06:18:00,41.5,37.3,30.21,WNW,298,0.0,0.0,85,0.00,,,0.00,0,WeatherTracker,2013-02-01 14:18:00,
2013-02-01 06:23:00,41.3,37.1,30.22,WNW,298,0.0,0.0,85,0.00,,,0.00,0,WeatherTracker,2013-02-01 14:23:00,
2013-02-01 06:28:00,41.2,37.3,30.22,WNW,298,0.0,0.0,86,0.00,,,0.00,0,WeatherTracker,2013-02-01 14:28:00,
2013-02-01 06:35:00,41.1,37.2,30.22,WNW,300,0.0,0.0,86,0.00,,,0.00,0,WeatherTracker,2013-02-01 14:35:00,
2013-02-01 06:40:00,41.1,37.2,30.22,WNW,301,0.0,0.0,86,0.00,,,0.00,0,WeatherTracker,2013-02-01 14:40:00,
2013-02-01 06:45:00,41.2,37.3,30.22,NW,310,0.0,0.0,86,0.00,,,0.00,0,WeatherTracker,2013-02-01 14:45:00,
2013-02-01 06:50:00,41.2,37.3,30.22,NW,316,0.0,0.0,86,0.00,,,0.00,0,WeatherTracker,2013-02-01 14:50:00,
2013-02-01 06:55:00,41.3,37.4,30.22,NW,318,0.0,0.0,86,0.00,,,0.00,0,WeatherTracker,2013-02-01 14:55:00,
2013-02-01 07:00:00,41.4,37.5,30.22,NW,319,0.0,0.0,86,0.00,,,0.00,0,WeatherTracker,2013-02-01 15:00:00,
2013-02-01 07:05:00,41.4,37.5,30.22,NW,318,0.0,0.0,86,0.00,,,0.00,0,WeatherTracker,2013-02-01 15:05:00,
2013-02-01 07:10:00,41.5,37.6,30.23,NW,317,0.0,0.0,86,0.00,,,0.00,5,WeatherTracker,2013-02-01 15:10:00,
2013-02-01 07:15:00,41.6,37.7,30.23,NW,317,0.0,0.0,86,0.00,,,0.00,7,WeatherTracker,2013-02-01 15:15:00,
2013-02-01 07:20:00,41.6,37.4,30.23,NW,317,0.0,0.0,85,0.00,,,0.00,11,WeatherTracker,2013-02-01 15:20:00,
2013-02-01 07:25:00,41.6,37.4,30.23,NW,317,0.0,0.0,85,0.00,,,0.00,12,WeatherTracker,2013-02-01 15:25:00,
2013-02-01 07:30:00,41.7,37.5,30.23,NW,317,0.0,0.0,85,0.00,,,0.00,16,WeatherTracker,2013-02-01 15:30:00,
2013-02-01 07:36:00,41.7,37.8,30.23,NW,317,0.0,0.0,86,0.00,,,0.00,18,WeatherTracker,2013-02-01 15:36:00,
2013-02-01 07:41:00,41.8,37.9,30.23,NW,317,0.0,0.0,86,0.00,,,0.00,21,WeatherTracker,2013-02-01 15:41:00,
2013-02-01 07:46:00,42.0,38.1,30.23,NNW,327,0.0,0.0,86,0.00,,,0.00,25,WeatherTracker,2013-02-01 15:46:00,
2013-02-01 07:51:00,42.3,38.4,30.23,NNW,333,0.0,0.0,86,0.00,,,0.00,32,WeatherTracker,2013-02-01 15:51:00,
2013-02-01 07:56:00,42.9,38.7,30.23,NNW,336,0.0,2.0,85,0.00,,,0.00,54,WeatherTracker,2013-02-01 15:56:00,
2013-02-01 08:01:00,43.9,39.4,30.23,NNW,331,0.0,2.0,84,0.00,,,0.00,93,WeatherTracker,2013-02-01 16:01:00,
2013-02-01 08:06:00,45.2,40.0,30.23,NW,324,1.0,2.0,82,0.00,,,0.00,111,WeatherTracker,2013-02-01 16:06:00,
2013-02-01 08:11:00,46.6,40.4,30.23,NNW,331,0.0,3.0,79,0.00,,,0.00,128,WeatherTracker,2013-02-01 16:11:00,
2013-02-01 08:16:00,47.3,40.5,30.23,NNW,335,0.0,5.0,77,0.00,,,0.00,146,WeatherTracker,2013-02-01 16:16:00,
2013-02-01 08:21:00,48.0,40.8,30.23,NNW,329,2.0,6.0,76,0.00,,,0.00,163,WeatherTracker,2013-02-01 16:21:00,
2013-02-01 08:26:00,48.5,40.6,30.23,NNW,331,4.0,6.0,74,0.00,,,0.00,181,WeatherTracker,2013-02-01 16:26:00,
2013-02-01 08:31:00,48.8,40.9,30.23,NNW,336,1.0,6.0,74,0.00,,,0.00,195,WeatherTracker,2013-02-01 16:31:00,
2013-02-01 08:36:00,49.2,40.9,30.23,NW,322,3.0,6.0,73,0.00,,,0.00,211,WeatherTracker,2013-02-01 16:36:00,
2013-02-01 08:41:00,49.5,41.2,30.24,NW,311,0.0,6.0,73,0.00,,,0.00,229,WeatherTracker,2013-02-01 16:41:00,
2013-02-01 08:46:00,50.0,41.3,30.24,NNW,343,2.0,6.0,72,0.00,,,0.00,244,WeatherTracker,2013-02-01 16:46:00,
2013-02-01 08:51:00,50.2,41.5,30.24,NNW,333,3.0,6.0,72,0.00,,,0.00,258,WeatherTracker,2013-02-01 16:51:00,
2013-02-01 08:56:00,50.4,41.7,30.24,NW,319,1.0,5.0,72,0.00,,,0.00,272,WeatherTracker,2013-02-01 16:56:00,
2013-02-01 09:01:00,50.7,42.0,30.24,NNW,340,3.0,4.0,72,0.00,,,0.00,285,WeatherTracker,2013-02-01 17:01:00,
2013-02-01 09:06:00,51.3,42.2,30.24,NNW,327,2.0,5.0,71,0.00,,,0.00,297,WeatherTracker,2013-02-01 17:06:00,
2013-02-01 09:11:00,51.8,43.1,30.24,NW,325,0.0,5.0,72,0.00,,,0.00,313,WeatherTracker,2013-02-01 17:11:00,
2013-02-01 09:17:00,52.7,43.2,30.24,NW,325,0.0,5.0,70,0.00,,,0.00,325,WeatherTracker,2013-02-01 17:17:00,
2013-02-01 09:22:00,53.1,43.2,30.24,NW,326,1.0,3.0,69,0.00,,,0.00,338,WeatherTracker,2013-02-01 17:22:00,
2013-02-01 09:27:00,53.4,43.5,30.24,NNW,337,2.0,4.0,69,0.00,,,0.00,350,WeatherTracker,2013-02-01 17:27:00,
2013-02-01 09:32:00,53.3,43.4,30.24,NNW,327,1.0,5.0,69,0.00,,,0.00,362,WeatherTracker,2013-02-01 17:32:00,
2013-02-01 09:37:00,53.2,43.7,30.24,NW,321,3.0,5.0,70,0.00,,,0.00,378,WeatherTracker,2013-02-01 17:37:00,
2013-02-01 09:42:00,53.8,44.6,30.24,NNW,331,2.0,4.0,71,0.00,,,0.00,392,WeatherTracker,2013-02-01 17:42:00,
2013-02-01 09:47:00,54.1,44.5,30.24,North,360,2.0,5.0,70,0.00,,,0.00,403,WeatherTracker,2013-02-01 17:47:00,
2013-02-01 09:52:00,54.6,44.6,30.24,NNW,340,1.0,5.0,69,0.00,,,0.00,417,WeatherTracker,2013-02-01 17:52:00,
2013-02-01 09:57:00,55.0,44.6,30.24,NW,315,3.0,5.0,68,0.00,,,0.00,429,WeatherTracker,2013-02-01 17:57:00,
2013-02-01 10:02:00,55.2,44.8,30.24,NW,321,3.0,6.0,68,0.00,,,0.00,439,WeatherTracker,2013-02-01 18:02:00,
2013-02-01 10:07:00,55.5,45.1,30.24,NNW,334,2.0,7.0,68,0.00,,,0.00,450,WeatherTracker,2013-02-01 18:07:00,
2013-02-01 10:12:00,55.8,45.0,30.23,WNW,302,1.0,8.0,67,0.00,,,0.00,457,WeatherTracker,2013-02-01 18:12:00,
2013-02-01 10:17:00,56.1,45.7,30.24,North,360,1.0,8.0,68,0.00,,,0.00,469,WeatherTracker,2013-02-01 18:17:00,
2013-02-01 10:22:00,56.8,45.6,30.24,NNW,334,4.0,4.0,66,0.00,,,0.00,482,WeatherTracker,2013-02-01 18:22:00,
2013-02-01 10:27:00,57.2,45.5,30.23,NNW,329,2.0,5.0,65,0.00,,,0.00,492,WeatherTracker,2013-02-01 18:27:00,
2013-02-01 10:32:00,57.8,46.1,30.23,NNW,345,1.0,5.0,65,0.00,,,0.00,501,WeatherTracker,2013-02-01 18:32:00,
2013-02-01 10:37:00,58.2,45.7,30.23,NNW,330,0.0,4.0,63,0.00,,,0.00,510,WeatherTracker,2013-02-01 18:37:00,
2013-02-01 10:42:00,58.4,45.0,30.23,NW,322,1.0,4.0,61,0.00,,,0.00,519,WeatherTracker,2013-02-01 18:42:00,
2013-02-01 10:47:00,58.7,45.7,30.23,NW,320,2.0,4.0,62,0.00,,,0.00,529,WeatherTracker,2013-02-01 18:47:00,
2013-02-01 10:52:00,59.1,45.2,30.23,WNW,287,1.0,5.0,60,0.00,,,0.00,534,WeatherTracker,2013-02-01 18:52:00,
2013-02-01 10:57:00,59.1,45.2,30.24,NNW,332,3.0,6.0,60,0.00,,,0.00,543,WeatherTracker,2013-02-01 18:57:00,
2013-02-01 11:02:00,59.1,44.8,30.23,NW,320,0.0,7.0,59,0.00,,,0.00,550,WeatherTracker,2013-02-01 19:02:00,
2013-02-01 11:07:00,59.1,44.3,30.23,WNW,302,2.0,7.0,58,0.00,,,0.00,555,WeatherTracker,2013-02-01 19:07:00,
2013-02-01 11:12:00,59.6,44.8,30.23,NNW,331,3.0,7.0,58,0.00,,,0.00,564,WeatherTracker,2013-02-01 19:12:00,
2013-02-01 11:17:00,59.7,44.0,30.23,NW,318,6.0,8.0,56,0.00,,,0.00,571,WeatherTracker,2013-02-01 19:17:00,
2013-02-01 11:23:00,59.9,44.2,30.23,NNW,342,7.0,10.0,56,0.00,,,0.00,575,WeatherTracker,2013-02-01 19:23:00,
2013-02-01 11:28:00,60.2,44.4,30.23,NW,321,3.0,10.0,56,0.00,,,0.00,582,WeatherTracker,2013-02-01 19:28:00,
2013-02-01 11:33:00,60.5,44.7,30.22,North,5,0.0,8.0,56,0.00,,,0.00,589,WeatherTracker,2013-02-01 19:33:00,
2013-02-01 11:38:00,60.8,45.0,30.22,North,349,2.0,8.0,56,0.00,,,0.00,591,WeatherTracker,2013-02-01 19:38:00,
2013-02-01 11:43:00,61.1,45.3,30.22,NNW,348,6.0,8.0,56,0.00,,,0.00,596,WeatherTracker,2013-02-01 19:43:00,
2013-02-01 11:48:00,61.4,45.1,30.22,NW,315,2.0,8.0,55,0.00,,,0.00,598,WeatherTracker,2013-02-01 19:48:00,
2013-02-01 11:53:00,61.5,45.2,30.22,NW,320,4.0,8.0,55,0.00,,,0.00,601,WeatherTracker,2013-02-01 19:53:00,
2013-02-01 11:58:00,61.6,45.3,30.22,WNW,290,6.0,7.0,55,0.00,,,0.00,605,WeatherTracker,2013-02-01 19:58:00,
2013-02-01 12:03:00,61.7,45.8,30.22,WNW,286,0.0,7.0,56,0.00,,,0.00,605,WeatherTracker,2013-02-01 20:03:00,
2013-02-01 12:08:00,61.8,45.0,30.21,NW,317,2.0,7.0,54,0.00,,,0.00,606,WeatherTracker,2013-02-01 20:08:00,
2013-02-01 12:13:00,62.0,45.2,30.21,NNW,342,3.0,8.0,54,0.00,,,0.00,608,WeatherTracker,2013-02-01 20:13:00,
2013-02-01 12:18:00,62.3,45.4,30.21,North,355,2.0,9.0,54,0.00,,,0.00,610,WeatherTracker,2013-02-01 20:18:00,
2013-02-01 12:23:00,62.7,45.3,30.20,NNW,330,2.0,9.0,53,0.00,,,0.00,610,WeatherTracker,2013-02-01 20:23:00,
2013-02-01 12:28:00,63.1,45.7,30.20,NNW,348,3.0,8.0,53,0.00,,,0.00,610,WeatherTracker,2013-02-01 20:28:00,
2013-02-01 12:33:00,63.1,46.2,30.20,NW,321,1.0,8.0,54,0.00,,,0.00,610,WeatherTracker,2013-02-01 20:33:00,
2013-02-01 12:38:00,63.5,46.1,30.19,NNW,348,2.0,8.0,53,0.00,,,0.00,610,WeatherTracker,2013-02-01 20:38:00,
2013-02-01 12:43:00,63.7,46.2,30.19,NW,317,3.0,8.0,53,0.00,,,0.00,606,WeatherTracker,2013-02-01 20:43:00,
2013-02-01 12:48:00,63.9,45.9,30.19,NW,315,1.0,8.0,52,0.00,,,0.00,605,WeatherTracker,2013-02-01 20:48:00,
2013-02-01 12:53:00,64.1,46.6,30.18,NNW,336,4.0,9.0,53,0.00,,,0.00,605,WeatherTracker,2013-02-01 20:53:00,
2013-02-01 12:59:00,64.3,46.8,30.18,NW,308,1.0,9.0,53,0.00,,,0.00,603,WeatherTracker,2013-02-01 20:59:00,
2013-02-01 13:04:00,64.4,46.9,30.17,North,5,3.0,8.0,53,0.00,,,0.00,596,WeatherTracker,2013-02-01 21:04:00,
2013-02-01 13:09:00,64.6,47.1,30.18,NW,309,3.0,11.0,53,0.00,,,0.00,596,WeatherTracker,2013-02-01 21:09:00,
2013-02-01 13:14:00,65.1,47.5,30.18,NNW,334,4.0,11.0,53,0.00,,,0.00,591,WeatherTracker,2013-02-01 21:14:00,
2013-02-01 13:19:00,65.4,47.3,30.18,NW,326,5.0,6.0,52,0.00,,,0.00,587,WeatherTracker,2013-02-01 21:19:00,
2013-02-01 13:24:00,65.5,46.9,30.18,North,10,4.0,8.0,51,0.00,,,0.00,580,WeatherTracker,2013-02-01 21:24:00,
2013-02-01 13:29:00,65.4,46.8,30.17,North,355,2.0,8.0,51,0.00,,,0.00,575,WeatherTracker,2013-02-01 21:29:00,
2013-02-01 13:34:00,65.7,47.6,30.17,NNW,337,0.0,7.0,52,0.00,,,0.00,570,WeatherTracker,2013-02-01 21:34:00,
2013-02-01 13:39:00,66.1,46.9,30.17,NNE,12,1.0,7.0,50,0.00,,,0.00,566,WeatherTracker,2013-02-01 21:39:00,
2013-02-01 13:44:00,66.5,46.7,30.16,North,5,2.0,7.0,49,0.00,,,0.00,555,WeatherTracker,2013-02-01 21:44:00,
2013-02-01 13:49:00,66.1,46.4,30.16,NNW,336,1.0,7.0,49,0.00,,,0.00,550,WeatherTracker,2013-02-01 21:49:00,
2013-02-01 13:54:00,66.1,46.4,30.16,NNW,340,3.0,7.0,49,0.00,,,0.00,543,WeatherTracker,2013-02-01 21:54:00,
2013-02-01 13:59:00,66.7,46.4,30.16,NNW,343,2.0,7.0,48,0.00,,,0.00,536,WeatherTracker,2013-02-01 21:59:00,
2013-02-01 14:04:00,67.3,46.4,30.16,North,355,2.0,7.0,47,0.00,,,0.00,527,WeatherTracker,2013-02-01 22:04:00,
2013-02-01 14:09:00,67.4,46.5,30.16,North,355,4.0,8.0,47,0.00,,,0.00,520,WeatherTracker,2013-02-01 22:09:00,
2013-02-01 14:14:00,67.4,47.0,30.15,NNW,345,5.0,8.0,48,0.00,,,0.00,510,WeatherTracker,2013-02-01 22:14:00,
2013-02-01 14:19:00,67.2,46.8,30.16,NNE,13,2.0,7.0,48,0.00,,,0.00,499,WeatherTracker,2013-02-01 22:19:00,
2013-02-01 14:24:00,67.2,46.8,30.16,NNW,348,1.0,7.0,48,0.00,,,0.00,490,WeatherTracker,2013-02-01 22:24:00,
2013-02-01 14:30:00,67.6,47.2,30.15,NW,311,2.0,6.0,48,0.00,,,0.00,480,WeatherTracker,2013-02-01 22:30:00,
2013-02-01 14:35:00,67.8,46.3,30.16,NNW,339,3.0,9.0,46,0.00,,,0.00,469,WeatherTracker,2013-02-01 22:35:00,
2013-02-01 14:40:00,68.1,47.7,30.15,NW,311,1.0,9.0,48,0.00,,,0.00,457,WeatherTracker,2013-02-01 22:40:00,
2013-02-01 14:45:00,68.1,46.5,30.15,WNW,300,1.0,5.0,46,0.00,,,0.00,446,WeatherTracker,2013-02-01 22:45:00,
2013-02-01 14:50:00,68.2,47.2,30.15,NNW,348,4.0,7.0,47,0.00,,,0.00,436,WeatherTracker,2013-02-01 22:50:00,
2013-02-01 14:55:00,68.1,47.1,30.15,North,5,1.0,7.0,47,0.00,,,0.00,424,WeatherTracker,2013-02-01 22:55:00,
2013-02-01 15:00:00,68.2,47.2,30.15,North,351,1.0,8.0,47,0.00,,,0.00,411,WeatherTracker,2013-02-01 23:00:00,
2013-02-01 15:05:00,68.3,47.3,30.15,NNW,341,2.0,8.0,47,0.00,,,0.00,397,WeatherTracker,2013-02-01 23:05:00,
2013-02-01 15:10:00,68.4,47.4,30.15,NW,323,2.0,7.0,47,0.00,,,0.00,385,WeatherTracker,2013-02-01 23:10:00,
2013-02-01 15:15:00,68.4,46.8,30.15,NNW,327,5.0,7.0,46,0.00,,,0.00,373,WeatherTracker,2013-02-01 23:15:00,
2013-02-01 15:20:00,68.5,46.9,30.15,NW,308,1.0,6.0,46,0.00,,,0.00,359,WeatherTracker,2013-02-01 23:20:00,
2013-02-01 15:25:00,68.4,46.8,30.15,NNW,336,3.0,8.0,46,0.00,,,0.00,348,WeatherTracker,2013-02-01 23:25:00,
2013-02-01 15:31:00,68.2,46.6,30.15,NNW,344,0.0,8.0,46,0.00,,,0.00,334,WeatherTracker,2013-02-01 23:31:00,
2013-02-01 15:36:00,68.1,46.5,30.15,NNW,331,1.0,7.0,46,0.00,,,0.00,318,WeatherTracker,2013-02-01 23:36:00,
2013-02-01 15:41:00,67.9,46.3,30.14,North,5,1.0,7.0,46,0.00,,,0.00,302,WeatherTracker,2013-02-01 23:41:00,
2013-02-01 15:46:00,67.8,46.3,30.14,North,360,3.0,7.0,46,0.00,,,0.00,285,WeatherTracker,2013-02-01 23:46:00,
2013-02-01 15:51:00,67.8,45.7,30.14,NNW,345,3.0,7.0,45,0.00,,,0.00,269,WeatherTracker,2013-02-01 23:51:00,
2013-02-01 15:56:00,67.6,46.1,30.14,NNW,337,1.0,7.0,46,0.00,,,0.00,246,WeatherTracker,2013-02-01 23:56:00,
2013-02-01 16:01:00,67.2,45.1,30.14,North,5,0.0,7.0,45,0.00,,,0.00,39,WeatherTracker,2013-02-02 00:01:00,
2013-02-01 16:06:00,66.5,45.1,30.14,North,355,0.0,5.0,46,0.00,,,0.00,46,WeatherTracker,2013-02-02 00:06:00,
2013-02-01 16:11:00,65.8,45.0,30.14,NNW,336,0.0,2.0,47,0.00,,,0.00,76,WeatherTracker,2013-02-02 00:11:00,
2013-02-01 16:16:00,65.2,44.5,30.14,NNE,16,3.0,5.0,47,0.00,,,0.00,109,WeatherTracker,2013-02-02 00:16:00,
2013-02-01 16:21:00,64.8,44.6,30.14,NNW,340,1.0,7.0,48,0.00,,,0.00,63,WeatherTracker,2013-02-02 00:21:00,
2013-02-01 16:26:00,64.4,44.8,30.14,NNW,331,4.0,7.0,49,0.00,,,0.00,56,WeatherTracker,2013-02-02 00:26:00,
2013-02-01 16:31:00,64.0,44.5,30.14,NW,317,0.0,5.0,49,0.00,,,0.00,35,WeatherTracker,2013-02-02 00:31:00,
2013-02-01 16:36:00,63.6,44.6,30.14,North,350,0.0,5.0,50,0.00,,,0.00,33,WeatherTracker,2013-02-02 00:36:00,
2013-02-01 16:41:00,63.3,45.4,30.14,NNW,330,2.0,4.0,52,0.00,,,0.00,28,WeatherTracker,2013-02-02 00:41:00,
2013-02-01 16:46:00,62.9,45.0,30.14,North,355,2.0,4.0,52,0.00,,,0.00,28,WeatherTracker,2013-02-02 00:46:00,
2013-02-01 16:51:00,62.6,45.2,30.14,NNW,342,0.0,4.0,53,0.00,,,0.00,28,WeatherTracker,2013-02-02 00:51:00,
2013-02-01 16:56:00,62.3,44.9,30.14,NNW,338,1.0,4.0,53,0.00,,,0.00,26,WeatherTracker,2013-02-02 00:56:00,
2013-02-01 17:01:00,62.0,45.2,30.13,NNW,338,0.0,3.0,54,0.00,,,0.00,25,WeatherTracker,2013-02-02 01:01:00,
2013-02-01 17:06:00,61.7,44.9,30.13,NNW,342,1.0,2.0,54,0.00,,,0.00,21,WeatherTracker,2013-02-02 01:06:00,
2013-02-01 17:11:00,61.3,45.0,30.13,NNW,327,0.0,2.0,55,0.00,,,0.00,16,WeatherTracker,2013-02-02 01:11:00,
2013-02-01 17:16:00,61.0,44.7,30.14,NNW,327,0.0,2.0,55,0.00,,,0.00,12,WeatherTracker,2013-02-02 01:16:00,
2013-02-01 17:21:00,60.6,44.8,30.14,NNW,327,0.0,1.0,56,0.00,,,0.00,11,WeatherTracker,2013-02-02 01:21:00,
2013-02-01 17:26:00,60.0,44.7,30.14,NNW,327,0.0,1.0,57,0.00,,,0.00,7,WeatherTracker,2013-02-02 01:26:00,
2013-02-01 17:31:00,59.3,44.5,30.14,NNW,327,0.0,1.0,58,0.00,,,0.00,5,WeatherTracker,2013-02-02 01:31:00,
2013-02-01 17:36:00,59.1,44.8,30.15,NNW,327,0.0,0.0,59,0.00,,,0.00,5,WeatherTracker,2013-02-02 01:36:00,
2013-02-01 17:41:00,58.4,44.6,30.15,NNW,327,0.0,0.0,60,0.00,,,0.00,0,WeatherTracker,2013-02-02 01:41:00,
2013-02-01 17:47:00,57.8,44.0,30.15,NNW,327,0.0,0.0,60,0.00,,,0.00,0,WeatherTracker,2013-02-02 01:47:00,
2013-02-01 17:52:00,57.4,44.5,30.15,NNW,327,0.0,0.0,62,0.00,,,0.00,0,WeatherTracker,2013-02-02 01:52:00,
2013-02-01 17:57:00,56.7,44.2,30.15,NNW,327,0.0,0.0,63,0.00,,,0.00,0,WeatherTracker,2013-02-02 01:57:00,
2013-02-01 18:02:00,56.1,44.1,30.15,NNW,327,0.0,0.0,64,0.00,,,0.00,0,WeatherTracker,2013-02-02 02:02:00,
2013-02-01 18:07:00,55.5,44.3,30.16,NNW,327,0.0,0.0,66,0.00,,,0.00,0,WeatherTracker,2013-02-02 02:07:00,
2013-02-01 18:12:00,54.9,43.8,30.16,NNW,327,0.0,0.0,66,0.00,,,0.00,0,WeatherTracker,2013-02-02 02:12:00,
2013-02-01 18:17:00,54.6,43.9,30.16,NNW,327,0.0,0.0,67,0.00,,,0.00,0,WeatherTracker,2013-02-02 02:17:00,
2013-02-01 18:22:00,54.3,44.0,30.16,NNW,327,0.0,0.0,68,0.00,,,0.00,0,WeatherTracker,2013-02-02 02:22:00,
2013-02-01 18:27:00,54.2,43.9,30.16,NNW,327,0.0,0.0,68,0.00,,,0.00,0,WeatherTracker,2013-02-02 02:27:00,
2013-02-01 18:32:00,54.0,44.1,30.17,NNW,327,0.0,0.0,69,0.00,,,0.00,0,WeatherTracker,2013-02-02 02:32:00,
2013-02-01 18:37:00,53.8,43.9,30.17,NNW,327,0.0,0.0,69,0.00,,,0.00,0,WeatherTracker,2013-02-02 02:37:00,
2013-02-01 18:42:00,53.5,43.6,30.17,NNW,327,0.0,0.0,69,0.00,,,0.00,0,WeatherTracker,2013-02-02 02:42:00,
2013-02-01 18:47:00,53.1,43.9,30.17,NNW,327,0.0,0.0,71,0.00,,,0.00,0,WeatherTracker,2013-02-02 02:47:00,
2013-02-01 18:52:00,52.6,43.5,30.17,NNW,327,0.0,0.0,71,0.00,,,0.00,0,WeatherTracker,2013-02-02 02:52:00,
2013-02-01 18:57:00,52.3,43.5,30.18,NNW,327,0.0,0.0,72,0.00,,,0.00,0,WeatherTracker,2013-02-02 02:57:00,
2013-02-01 19:02:00,52.2,43.8,30.18,NNW,327,0.0,0.0,73,0.00,,,0.00,0,WeatherTracker,2013-02-02 03:02:00,
2013-02-01 19:07:00,52.0,43.6,30.18,NNW,327,0.0,0.0,73,0.00,,,0.00,0,WeatherTracker,2013-02-02 03:07:00,
2013-02-01 19:12:00,51.7,43.3,30.18,NNW,327,0.0,0.0,73,0.00,,,0.00,0,WeatherTracker,2013-02-02 03:12:00,
2013-02-01 19:17:00,51.4,43.4,30.18,NNW,327,0.0,0.0,74,0.00,,,0.00,0,WeatherTracker,2013-02-02 03:17:00,
2013-02-01 19:22:00,51.0,43.0,30.18,NNW,327,0.0,0.0,74,0.00,,,0.00,0,WeatherTracker,2013-02-02 03:22:00,
2013-02-01 19:27:00,50.8,43.2,30.18,NNW,327,0.0,0.0,75,0.00,,,0.00,0,WeatherTracker,2013-02-02 03:27:00,
2013-02-01 19:32:00,50.6,43.0,30.18,NNW,327,0.0,0.0,75,0.00,,,0.00,0,WeatherTracker,2013-02-02 03:32:00,
2013-02-01 19:38:00,50.4,43.1,30.19,NNW,327,0.0,0.0,76,0.00,,,0.00,0,WeatherTracker,2013-02-02 03:38:00,
2013-02-01 19:43:00,50.3,43.0,30.19,NNW,327,0.0,0.0,76,0.00,,,0.00,0,WeatherTracker,2013-02-02 03:43:00,
2013-02-01 19:48:00,50.3,43.0,30.19,NNW,327,0.0,0.0,76,0.00,,,0.00,0,WeatherTracker,2013-02-02 03:48:00,
2013-02-01 19:53:00,50.2,42.9,30.19,NNW,327,0.0,0.0,76,0.00,,,0.00,0,WeatherTracker,2013-02-02 03:53:00,
2013-02-01 19:58:00,50.1,42.8,30.19,NW,326,0.0,0.0,76,0.00,,,0.00,0,WeatherTracker,2013-02-02 03:58:00,
2013-02-01 20:03:00,49.9,43.0,30.19,NW,326,0.0,0.0,77,0.00,,,0.00,0,WeatherTracker,2013-02-02 04:03:00,
2013-02-01 20:08:00,49.7,42.8,30.19,NW,326,0.0,0.0,77,0.00,,,0.00,0,WeatherTracker,2013-02-02 04:08:00,
2013-02-01 20:13:00,49.3,42.7,30.19,NW,326,0.0,0.0,78,0.00,,,0.00,0,WeatherTracker,2013-02-02 04:13:00,
2013-02-01 20:18:00,49.1,42.5,30.19,NW,326,0.0,0.0,78,0.00,,,0.00,0,WeatherTracker,2013-02-02 04:18:00,
2013-02-01 20:23:00,49.1,42.5,30.20,NW,326,0.0,0.0,78,0.00,,,0.00,0,WeatherTracker,2013-02-02 04:23:00,
2013-02-01 20:28:00,49.1,42.5,30.20,NW,326,0.0,0.0,78,0.00,,,0.00,0,WeatherTracker,2013-02-02 04:28:00,
2013-02-01 20:33:00,49.0,42.4,30.20,NW,326,0.0,0.0,78,0.00,,,0.00,0,WeatherTracker,2013-02-02 04:33:00,
2013-02-01 20:38:00,48.9,42.3,30.20,NW,326,0.0,0.0,78,0.00,,,0.00,0,WeatherTracker,2013-02-02 04:38:00,
2013-02-01 20:43:00,48.8,42.2,30.20,NW,326,0.0,0.0,78,0.00,,,0.00,0,WeatherTracker,2013-02-02 04:43:00,
2013-02-01 20:48:00,48.6,42.1,30.20,NW,326,0.0,0.0,78,0.00,,,0.00,0,WeatherTracker,2013-02-02 04:48:00,
2013-02-01 20:53:00,48.4,41.9,30.20,NW,326,0.0,0.0,78,0.00,,,0.00,0,WeatherTracker,2013-02-02 04:53:00,
2013-02-01 20:58:00,48.3,42.1,30.20,NW,326,0.0,0.0,79,0.00,,,0.00,0,WeatherTracker,2013-02-02 04:58:00,
2013-02-01 21:00:00,48.2,42.0,30.20,NW,326,0.0,0.0,79,0.00,,,0.00,0,WeatherTracker,2013-02-02 05:00:00,
2013-02-01 21:05:00,48.0,41.8,30.20,NW,326,0.0,0.0,79,0.00,,,0.00,0,WeatherTracker,2013-02-02 05:05:00,
2013-02-01 21:10:00,47.8,41.9,30.20,NW,326,0.0,0.0,80,0.00,,,0.00,0,WeatherTracker,2013-02-02 05:10:00,
2013-02-01 21:15:00,47.7,41.8,30.21,NW,326,0.0,0.0,80,0.00,,,0.00,0,WeatherTracker,2013-02-02 05:15:00,
2013-02-01 21:20:00,47.6,41.7,30.21,NW,326,0.0,0.0,80,0.00,,,0.00,0,WeatherTracker,2013-02-02 05:20:00,
2013-02-01 21:27:00,47.5,41.6,30.21,NW,326,0.0,0.0,80,0.00,,,0.00,0,WeatherTracker,2013-02-02 05:27:00,
2013-02-01 21:32:00,47.3,41.8,30.21,NW,326,0.0,0.0,81,0.00,,,0.00,0,WeatherTracker,2013-02-02 05:32:00,
2013-02-01 21:37:00,47.2,41.7,30.21,NW,326,0.0,0.0,81,0.00,,,0.00,0,WeatherTracker,2013-02-02 05:37:00,
2013-02-01 21:42:00,47.0,41.8,30.21,NW,326,0.0,0.0,82,0.00,,,0.00,0,WeatherTracker,2013-02-02 05:42:00,
2013-02-01 21:47:00,46.9,41.4,30.21,NW,326,0.0,0.0,81,0.00,,,0.00,0,WeatherTracker,2013-02-02 05:47:00,
2013-02-01 21:52:00,46.8,41.6,30.21,NW,326,0.0,0.0,82,0.00,,,0.00,0,WeatherTracker,2013-02-02 05:52:00,
2013-02-01 21:57:00,46.7,41.5,30.21,NW,326,0.0,0.0,82,0.00,,,0.00,0,WeatherTracker,2013-02-02 05:57:00,
2013-02-01 22:02:00,46.6,41.4,30.21,NW,326,0.0,0.0,82,0.00,,,0.00,0,WeatherTracker,2013-02-02 06:02:00,
2013-02-01 22:07:00,46.5,41.6,30.21,NW,326,0.0,0.0,83,0.00,,,0.00,0,WeatherTracker,2013-02-02 06:07:00,
2013-02-01 22:12:00,46.4,41.5,30.21,NW,326,0.0,0.0,83,0.00,,,0.00,0,WeatherTracker,2013-02-02 06:12:00,
2013-02-01 22:17:00,46.3,41.4,30.21,NW,326,0.0,0.0,83,0.00,,,0.00,0,WeatherTracker,2013-02-02 06:17:00,
2013-02-01 22:22:00,46.2,41.3,30.21,NW,326,0.0,0.0,83,0.00,,,0.00,0,WeatherTracker,2013-02-02 06:22:00,
2013-02-01 22:27:00,46.2,41.3,30.21,NW,326,0.0,0.0,83,0.00,,,0.00,0,WeatherTracker,2013-02-02 06:27:00,
2013-02-01 22:32:00,46.1,41.2,30.21,NW,326,0.0,0.0,83,0.00,,,0.00,0,WeatherTracker,2013-02-02 06:32:00,
2013-02-01 22:37:00,46.0,41.1,30.21,NW,326,0.0,0.0,83,0.00,,,0.00,0,WeatherTracker,2013-02-02 06:37:00,
2013-02-01 22:42:00,45.9,41.0,30.21,NW,326,0.0,0.0,83,0.00,,,0.00,0,WeatherTracker,2013-02-02 06:42:00,
2013-02-01 22:47:00,45.8,40.9,30.21,NW,326,0.0,0.0,83,0.00,,,0.00,0,WeatherTracker,2013-02-02 06:47:00,
2013-02-01 22:52:00,45.7,40.8,30.21,NW,326,0.0,0.0,83,0.00,,,0.00,0,WeatherTracker,2013-02-02 06:52:00,
2013-02-01 22:58:00,45.7,40.8,30.21,NW,326,0.0,0.0,83,0.00,,,0.00,0,WeatherTracker,2013-02-02 06:58:00,
2013-02-01 23:03:00,45.6,40.7,30.22,NW,326,0.0,0.0,83,0.00,,,0.00,0,WeatherTracker,2013-02-02 07:03:00,
2013-02-01 23:08:00,45.5,40.6,30.22,NW,326,0.0,0.0,83,0.00,,,0.00,0,WeatherTracker,2013-02-02 07:08:00,
2013-02-01 23:13:00,45.3,40.4,30.22,NW,326,0.0,0.0,83,0.00,,,0.00,0,WeatherTracker,2013-02-02 07:13:00,
2013-02-01 23:18:00,45.1,40.3,30.22,NW,326,0.0,0.0,83,0.00,,,0.00,0,WeatherTracker,2013-02-02 07:18:00,
2013-02-01 23:23:00,45.1,40.3,30.22,NW,326,0.0,0.0,83,0.00,,,0.00,0,WeatherTracker,2013-02-02 07:23:00,
2013-02-01 23:28:00,45.1,40.3,30.22,NW,326,0.0,0.0,83,0.00,,,0.00,0,WeatherTracker,2013-02-02 07:28:00,
2013-02-01 23:33:00,44.9,40.1,30.22,NW,326,0.0,0.0,83,0.00,,,0.00,0,WeatherTracker,2013-02-02 07:33:00,
2013-02-01 23:38:00,44.8,40.0,30.22,NW,326,0.0,0.0,83,0.00,,,0.00,0,WeatherTracker,2013-02-02 07:38:00,
2013-02-01 23:43:00,44.7,39.9,30.22,NW,326,0.0,0.0,83,0.00,,,0.00,0,WeatherTracker,2013-02-02 07:43:00,
2013-02-01 23:48:00,44.7,39.9,30.22,NW,326,0.0,0.0,83,0.00,,,0.00,0,WeatherTracker,2013-02-02 07:48:00,
2013-02-01 23:53:00,44.5,39.7,30.22,NW,326,0.0,0.0,83,0.00,,,0.00,0,WeatherTracker,2013-02-02 07:53:00,
2013-02-01 23:58:00,44.3,39.8,30.22,NW,326,0.0,0.0,84,0.00,,,0.00,0,WeatherTracker,2013-02-02 07:58:00,